| time (UTC) | temp F | wind direction | speed MPH | gust MPH | rain 1hr in | rain 24hr in | rain mn in | humidity % | barometer mb |
| 20260906111015 | 55 | 0.0 | 0.0 | 0.00 | 0.00 | 0.00 | 93 | 1017.5 | |
| 20260906110516 | 55 | 0.0 | 1.0 | 0.00 | 0.00 | 0.00 | 93 | 1017.4 | |
| 20260906110015 | 55 | 47 | 0.0 | 1.0 | 0.00 | 0.00 | 0.00 | 93 | 1017.3 |
| 20260906105515 | 55 | 45 | 0.0 | 2.0 | 0.00 | 0.00 | 0.00 | 93 | 1017.3 |
| 20260906105017 | 55 | 16 | 1.0 | 2.0 | 0.00 | 0.00 | 0.00 | 93 | 1017.3 |
| 20260906104515 | 55 | 19 | 0.0 | 2.0 | 0.00 | 0.00 | 0.00 | 93 | 1017.4 |
| 20260906104015 | 55 | 18 | 0.0 | 4.0 | 0.00 | 0.00 | 0.00 | 93 | 1017.3 |
| 20260906103515 | 55 | 10 | 2.0 | 4.0 | 0.00 | 0.00 | 0.00 | 93 | 1017.3 |
| 20260906103015 | 55 | 14 | 2.0 | 3.0 | 0.00 | 0.00 | 0.00 | 93 | 1017.2 |
| 20260906102515 | 55 | 29 | 1.0 | 3.0 | 0.00 | 0.00 | 0.00 | 93 | 1017.2 |
| 20260906102015 | 55 | 31 | 1.0 | 3.0 | 0.00 | 0.00 | 0.00 | 93 | 1017.1 |
| 20260906101515 | 55 | 31 | 1.0 | 3.0 | 0.00 | 0.00 | 0.00 | 92 | 1017.1 |
| 20260906101015 | 56 | 37 | 0.0 | 2.0 | 0.00 | 0.00 | 0.00 | 92 | 1017.0 |
| 20260906100515 | 56 | 38 | 0.0 | 3.0 | 0.00 | 0.00 | 0.00 | 92 | 1017.1 |
| 20260906100015 | 56 | 39 | 1.0 | 3.0 | 0.00 | 0.00 | 0.00 | 92 | 1017.0 |
| 20260906095515 | 56 | 53 | 1.0 | 3.0 | 0.00 | 0.00 | 0.00 | 92 | 1017.0 |
| 20260906095057 | 56 | 52 | 2.0 | 4.0 | 0.00 | 0.00 | 0.00 | 92 | 1017.0 |
| 20260906094515 | 56 | 56 | 2.0 | 4.0 | 0.00 | 0.00 | 0.00 | 92 | 1017.0 |
| 20260906094015 | 56 | 53 | 2.0 | 4.0 | 0.00 | 0.00 | 0.00 | 92 | 1017.0 |
| 20260906093515 | 56 | 40 | 1.0 | 3.0 | 0.00 | 0.00 | 0.00 | 92 | 1017.0 |
| 20260906093015 | 56 | 0.0 | 0.0 | 0.00 | 0.00 | 0.00 | 91 | 1017.1 | |
| 20260906092515 | 56 | 0.0 | 0.0 | 0.00 | 0.00 | 0.00 | 91 | 1017.0 | |
| 20260906092035 | 56 | 0.0 | 0.0 | 0.00 | 0.00 | 0.00 | 91 | 1017.0 | |
| 20260906091536 | 57 | 0.0 | 0.0 | 0.00 | 0.00 | 0.00 | 91 | 1017.0 | |
| 20260906091035 | 57 | 0.0 | 0.0 | 0.00 | 0.00 | 0.00 | 91 | 1016.9 | |
| 20260906090535 | 57 | 0.0 | 0.0 | 0.00 | 0.00 | 0.00 | 91 | 1016.9 | |
| 20260906090056 | 57 | 0.0 | 1.0 | 0.00 | 0.00 | 0.00 | 91 | 1016.8 | |
| 20260906085515 | 57 | 60 | 0.0 | 2.0 | 0.00 | 0.00 | 0.00 | 91 | 1016.6 |
| 20260906085015 | 57 | 44 | 0.0 | 2.0 | 0.00 | 0.00 | 0.00 | 91 | 1016.6 |
| 20260906084535 | 57 | 42 | 0.0 | 3.0 | 0.00 | 0.00 | 0.00 | 91 | 1016.6 |
| 20260906084015 | 57 | 44 | 0.0 | 3.0 | 0.00 | 0.00 | 0.00 | 91 | 1016.6 |
| 20260906083515 | 57 | 58 | 0.0 | 2.0 | 0.00 | 0.00 | 0.00 | 91 | 1016.5 |
| 20260906083015 | 57 | 54 | 0.0 | 3.0 | 0.00 | 0.00 | 0.00 | 92 | 1016.5 |
| 20260906082515 | 57 | 55 | 1.0 | 5.0 | 0.00 | 0.00 | 0.00 | 92 | 1016.5 |
| 20260906082015 | 57 | 67 | 2.0 | 5.0 | 0.00 | 0.00 | 0.00 | 92 | 1016.5 |
| 20260906081516 | 57 | 70 | 2.0 | 4.0 | 0.00 | 0.00 | 0.00 | 92 | 1016.3 |
| 20260906081015 | 57 | 62 | 1.0 | 3.0 | 0.00 | 0.00 | 0.00 | 92 | 1016.4 |
| 20260906080516 | 57 | 64 | 0.0 | 2.0 | 0.00 | 0.00 | 0.00 | 91 | 1016.4 |
| 20260906080015 | 58 | 64 | 0.0 | 1.0 | 0.00 | 0.00 | 0.00 | 91 | 1016.4 |
| 20260906075515 | 58 | 68 | 0.0 | 2.0 | 0.00 | 0.00 | 0.00 | 91 | 1016.4 |
| 20260906075015 | 58 | 81 | 0.0 | 2.0 | 0.00 | 0.00 | 0.00 | 91 | 1016.3 |
| 20260906074515 | 58 | 87 | 0.0 | 2.0 | 0.00 | 0.00 | 0.00 | 91 | 1016.3 |
| 20260906074017 | 58 | 64 | 0.0 | 3.0 | 0.00 | 0.00 | 0.00 | 91 | 1016.3 |
| 20260906073517 | 58 | 62 | 1.0 | 3.0 | 0.00 | 0.00 | 0.00 | 91 | 1016.2 |
| 20260906073017 | 58 | 42 | 1.0 | 2.0 | 0.00 | 0.00 | 0.00 | 91 | 1016.2 |
| 20260906072557 | 58 | 32 | 1.0 | 2.0 | 0.00 | 0.00 | 0.00 | 90 | 1016.2 |
| 20260906072017 | 59 | 40 | 1.0 | 3.0 | 0.00 | 0.00 | 0.00 | 90 | 1016.2 |
| 20260906071517 | 59 | 39 | 2.0 | 3.0 | 0.00 | 0.00 | 0.00 | 90 | 1016.3 |
| 20260906071015 | 59 | 46 | 0.0 | 2.0 | 0.00 | 0.00 | 0.00 | 89 | 1016.2 |
| 20260906070518 | 59 | 51 | 1.0 | 2.0 | 0.00 | 0.00 | 0.00 | 89 | 1016.3 |
| 20260906070017 | 59 | 48 | 0.0 | 2.0 | 0.00 | 0.00 | 0.00 | 88 | 1016.3 |
| 20260906065537 | 60 | 0.0 | 1.0 | 0.00 | 0.00 | 0.00 | 88 | 1016.4 | |
| 20260906065017 | 60 | 38 | 0.0 | 2.0 | 0.00 | 0.00 | 0.00 | 88 | 1016.4 |
| 20260906064517 | 60 | 37 | 0.0 | 2.0 | 0.00 | 0.00 | 0.00 | 87 | 1016.5 |
| 20260906064017 | 60 | 0.0 | 0.0 | 0.00 | 0.00 | 0.00 | 87 | 1016.4 | |
| 20260906063517 | 60 | 0.0 | 0.0 | 0.00 | 0.00 | 0.00 | 87 | 1016.4 | |
| 20260906063017 | 61 | 0.0 | 2.0 | 0.00 | 0.00 | 0.00 | 86 | 1016.4 | |
| 20260906062517 | 61 | 39 | 0.0 | 3.0 | 0.00 | 0.00 | 0.00 | 87 | 1016.4 |
| 20260906062017 | 61 | 60 | 0.0 | 4.0 | 0.00 | 0.00 | 0.00 | 87 | 1016.4 |
| 20260906061517 | 61 | 89 | 2.0 | 4.0 | 0.00 | 0.00 | 0.00 | 87 | 1016.3 |
| 20260906061017 | 61 | 110 | 2.0 | 4.0 | 0.00 | 0.00 | 0.00 | 86 | 1016.2 |
| 20260906060518 | 62 | 106 | 3.0 | 4.0 | 0.00 | 0.00 | 0.00 | 85 | 1016.2 |
| 20260906060017 | 62 | 92 | 2.0 | 4.0 | 0.00 | 0.00 | 0.00 | 84 | 1016.2 |
| 20260906055517 | 62 | 82 | 1.0 | 3.0 | 0.00 | 0.00 | 0.00 | 84 | 1016.4 |
| 20260906055017 | 63 | 77 | 1.0 | 3.0 | 0.00 | 0.00 | 0.00 | 84 | 1016.3 |
| 20260906054517 | 63 | 66 | 2.0 | 3.0 | 0.00 | 0.00 | 0.00 | 83 | 1016.3 |
| 20260906054038 | 63 | 49 | 1.0 | 3.0 | 0.00 | 0.00 | 0.00 | 83 | 1016.2 |
| 20260906053518 | 63 | 44 | 1.0 | 3.0 | 0.00 | 0.00 | 0.00 | 82 | 1016.2 |
| 20260906053017 | 64 | 50 | 1.0 | 4.0 | 0.00 | 0.00 | 0.00 | 82 | 1016.2 |
| 20260906052517 | 64 | 74 | 2.0 | 4.0 | 0.00 | 0.00 | 0.00 | 81 | 1016.1 |
| 20260906052017 | 64 | 86 | 2.0 | 4.0 | 0.00 | 0.00 | 0.00 | 81 | 1016.1 |
| 20260906051517 | 64 | 98 | 3.0 | 6.0 | 0.00 | 0.00 | 0.00 | 81 | 1016.1 |
| 20260906051016 | 64 | 83 | 3.0 | 6.0 | 0.00 | 0.00 | 0.00 | 81 | 1016.1 |
| 20260906050517 | 65 | 21 | 2.0 | 8.0 | 0.00 | 0.00 | 0.00 | 81 | 1016.0 |
| 20260906050017 | 65 | 44 | 4.0 | 8.0 | 0.00 | 0.00 | 0.00 | 81 | 1016.0 |
| 20260906045518 | 65 | 20 | 3.0 | 7.0 | 0.00 | 0.00 | 0.00 | 81 | 1015.8 |
| 20260906045016 | 65 | 64 | 3.0 | 7.0 | 0.00 | 0.00 | 0.00 | 81 | 1015.8 |
| 20260906044517 | 65 | 85 | 3.0 | 7.0 | 0.00 | 0.00 | 0.00 | 82 | 1015.7 |
| 20260906044017 | 65 | 86 | 3.0 | 6.0 | 0.00 | 0.00 | 0.00 | 82 | 1015.7 |
| 20260906043518 | 65 | 84 | 3.0 | 6.0 | 0.00 | 0.00 | 0.00 | 81 | 1015.7 |
| 20260906043017 | 66 | 76 | 2.0 | 5.0 | 0.00 | 0.00 | 0.00 | 81 | 1015.6 |
| 20260906042538 | 66 | 83 | 3.0 | 7.0 | 0.00 | 0.00 | 0.00 | 81 | 1015.6 |
| 20260906042017 | 66 | 79 | 3.0 | 7.0 | 0.00 | 0.00 | 0.00 | 81 | 1015.5 |
| 20260906041516 | 66 | 84 | 2.0 | 7.0 | 0.00 | 0.00 | 0.00 | 81 | 1015.5 |
| 20260906041016 | 66 | 84 | 4.0 | 9.0 | 0.00 | 0.00 | 0.00 | 81 | 1015.5 |
| 20260906040518 | 67 | 82 | 4.0 | 9.0 | 0.00 | 0.00 | 0.00 | 80 | 1015.5 |
| 20260906040016 | 67 | 81 | 4.0 | 9.0 | 0.00 | 0.00 | 0.00 | 80 | 1015.5 |
| 20260906035515 | 67 | 81 | 4.0 | 9.0 | 0.00 | 0.00 | 0.00 | 80 | 1015.5 |
| 20260906035015 | 67 | 85 | 5.0 | 8.0 | 0.00 | 0.00 | 0.00 | 81 | 1015.4 |
| 20260906034515 | 68 | 88 | 4.0 | 8.0 | 0.00 | 0.00 | 0.00 | 81 | 1015.4 |
| 20260906034015 | 68 | 80 | 3.0 | 8.0 | 0.00 | 0.00 | 0.00 | 82 | 1015.4 |
| 20260906033515 | 68 | 77 | 3.0 | 7.0 | 0.00 | 0.00 | 0.00 | 82 | 1015.3 |
| 20260906033015 | 68 | 79 | 3.0 | 7.0 | 0.00 | 0.00 | 0.00 | 81 | 1015.3 |
| 20260906032515 | 68 | 82 | 3.0 | 8.0 | 0.00 | 0.00 | 0.00 | 82 | 1015.4 |
| 20260906032055 | 68 | 81 | 3.0 | 8.0 | 0.00 | 0.00 | 0.00 | 82 | 1015.5 |
| 20260906031517 | 68 | 75 | 2.0 | 5.0 | 0.00 | 0.00 | 0.00 | 82 | 1015.6 |
| 20260906031017 | 68 | 70 | 3.0 | 6.0 | 0.00 | 0.00 | 0.00 | 83 | 1015.5 |
| 20260906030517 | 68 | 67 | 3.0 | 7.0 | 0.00 | 0.00 | 0.00 | 83 | 1015.4 |
| 20260906030017 | 68 | 81 | 3.0 | 7.0 | 0.00 | 0.00 | 0.00 | 83 | 1015.4 |
| 20260906025517 | 69 | 82 | 4.0 | 8.0 | 0.00 | 0.00 | 0.00 | 83 | 1015.4 |
| 20260906025018 | 69 | 84 | 3.0 | 8.0 | 0.00 | 0.00 | 0.00 | 83 | 1015.3 |
| 20260906024518 | 69 | 82 | 3.0 | 8.0 | 0.00 | 0.00 | 0.00 | 84 | 1015.3 |
| 20260906024017 | 69 | 79 | 3.0 | 8.0 | 0.00 | 0.00 | 0.00 | 84 | 1015.2 |
| 20260906023518 | 68 | 76 | 3.0 | 8.0 | 0.00 | 0.00 | 0.00 | 84 | 1015.0 |
| 20260906023037 | 68 | 75 | 4.0 | 8.0 | 0.00 | 0.00 | 0.00 | 85 | 1014.9 |
| 20260906022517 | 68 | 78 | 4.0 | 8.0 | 0.00 | 0.00 | 0.00 | 87 | 1014.9 |
| 20260906022017 | 68 | 76 | 3.0 | 7.0 | 0.00 | 0.00 | 0.00 | 88 | 1015.0 |
| 20260906021517 | 68 | 72 | 1.0 | 5.0 | 0.00 | 0.00 | 0.00 | 89 | 1014.9 |
| 20260906021018 | 68 | 68 | 1.0 | 4.0 | 0.00 | 0.00 | 0.00 | 89 | 1014.9 |
| 20260906020517 | 68 | 80 | 1.0 | 4.0 | 0.00 | 0.00 | 0.00 | 89 | 1014.8 |
| 20260906020017 | 68 | 84 | 1.0 | 3.0 | 0.00 | 0.00 | 0.00 | 90 | 1014.8 |
| 20260906015517 | 68 | 56 | 0.0 | 3.0 | 0.00 | 0.00 | 0.00 | 90 | 1014.8 |
| 20260906015017 | 69 | 52 | 1.0 | 3.0 | 0.00 | 0.00 | 0.00 | 90 | 1014.8 |
| 20260906014517 | 69 | 47 | 0.0 | 2.0 | 0.00 | 0.00 | 0.00 | 90 | 1014.9 |
| 20260906014017 | 69 | 0.0 | 0.0 | 0.00 | 0.00 | 0.00 | 90 | 1014.8 | |
| 20260906013517 | 69 | 0.0 | 0.0 | 0.00 | 0.00 | 0.00 | 89 | 1014.9 | |
| 20260906013017 | 69 | 0.0 | 0.0 | 0.00 | 0.00 | 0.00 | 89 | 1014.8 | |
| 20260906012518 | 69 | 0.0 | 0.0 | 0.00 | 0.00 | 0.00 | 89 | 1014.6 | |
| 20260906012017 | 70 | 0.0 | 1.0 | 0.00 | 0.00 | 0.00 | 89 | 1014.6 | |
| 20260906011517 | 70 | 37 | 0.0 | 1.0 | 0.00 | 0.00 | 0.00 | 89 | 1014.5 |
| 20260906011018 | 70 | 0.0 | 0.0 | 0.00 | 0.00 | 0.00 | 88 | 1014.4 | |
| 20260906010517 | 70 | 0.0 | 0.0 | 0.00 | 0.00 | 0.00 | 88 | 1014.3 | |
| 20260906010018 | 70 | 0.0 | 0.0 | 0.00 | 0.00 | 0.00 | 87 | 1014.3 | |
| 20260906005517 | 70 | 0.0 | 0.0 | 0.00 | 0.00 | 0.00 | 87 | 1014.2 | |
| 20260906005016 | 71 | 0.0 | 0.0 | 0.00 | 0.00 | 0.00 | 86 | 1014.1 | |
| 20260906004517 | 71 | 0.0 | 0.0 | 0.00 | 0.00 | 0.00 | 86 | 1014.1 | |
| 20260906004037 | 71 | 0.0 | 1.0 | 0.00 | 0.00 | 0.00 | 86 | 1014.0 | |
| 20260906003517 | 71 | 37 | 0.0 | 1.0 | 0.00 | 0.00 | 0.00 | 85 | 1014.0 |
| 20260906003037 | 71 | 37 | 0.0 | 1.0 | 0.00 | 0.00 | 0.00 | 85 | 1014.0 |
| 20260906002516 | 72 | 37 | 0.0 | 2.0 | 0.00 | 0.00 | 0.00 | 85 | 1014.0 |
| 20260906002016 | 72 | 39 | 0.0 | 3.0 | 0.00 | 0.00 | 0.00 | 84 | 1014.0 |
| 20260906001517 | 72 | 39 | 1.0 | 3.0 | 0.00 | 0.00 | 0.00 | 84 | 1014.0 |
| 20260906001037 | 72 | 32 | 0.0 | 2.0 | 0.00 | 0.00 | 0.00 | 84 | 1014.0 |
| 20260906000516 | 73 | 31 | 0.0 | 2.0 | 0.00 | 0.00 | 0.00 | 83 | 1014.0 |
| 20260906000018 | 73 | 24 | 0.0 | 2.0 | 0.00 | 0.00 | 0.00 | 83 | 1014.0 |
| 20260905235517 | 73 | 35 | 0.0 | 2.0 | 0.00 | 0.00 | 0.00 | 83 | 1013.9 |
| 20260905235036 | 73 | 42 | 0.0 | 3.0 | 0.00 | 0.00 | 0.00 | 83 | 1013.9 |
| 20260905234517 | 73 | 42 | 1.0 | 4.0 | 0.00 | 0.00 | 0.00 | 83 | 1013.9 |
| 20260905234017 | 73 | 49 | 2.0 | 4.0 | 0.00 | 0.00 | 0.00 | 83 | 1013.9 |
| 20260905233517 | 73 | 44 | 1.0 | 3.0 | 0.00 | 0.00 | 0.00 | 84 | 1013.9 |
| 20260905233016 | 73 | 37 | 1.0 | 3.0 | 0.00 | 0.00 | 0.00 | 84 | 1013.9 |
| 20260905232516 | 73 | 47 | 0.0 | 4.0 | 0.00 | 0.00 | 0.00 | 84 | 1013.9 |
| 20260905232017 | 73 | 61 | 2.0 | 5.0 | 0.00 | 0.00 | 0.00 | 84 | 1013.9 |
| 20260905231537 | 73 | 69 | 2.0 | 5.0 | 0.00 | 0.00 | 0.00 | 84 | 1014.0 |
| 20260905231016 | 73 | 51 | 1.0 | 4.0 | 0.00 | 0.00 | 0.00 | 84 | 1013.9 |
| 20260905230516 | 73 | 60 | 0.0 | 4.0 | 0.00 | 0.00 | 0.00 | 85 | 1013.9 |
| 20260905230018 | 73 | 55 | 1.0 | 5.0 | 0.00 | 0.00 | 0.00 | 85 | 1013.9 |
| 20260905225517 | 73 | 58 | 3.0 | 5.0 | 0.00 | 0.00 | 0.00 | 84 | 1013.9 |
| 20260905225017 | 73 | 44 | 1.0 | 4.0 | 0.00 | 0.00 | 0.00 | 84 | 1013.8 |
| 20260905224516 | 73 | 48 | 1.0 | 5.0 | 0.00 | 0.00 | 0.00 | 84 | 1013.7 |
| 20260905224017 | 73 | 54 | 2.0 | 9.0 | 0.00 | 0.00 | 0.00 | 84 | 1013.7 |
| 20260905223536 | 73 | 66 | 5.0 | 10.0 | 0.00 | 0.00 | 0.00 | 83 | 1013.7 |
| 20260905223016 | 73 | 61 | 6.0 | 10.0 | 0.00 | 0.00 | 0.00 | 84 | 1013.6 |
| 20260905222517 | 73 | 58 | 3.0 | 8.0 | 0.00 | 0.00 | 0.00 | 85 | 1013.6 |
| 20260905222018 | 73 | 74 | 3.0 | 7.0 | 0.00 | 0.00 | 0.00 | 85 | 1013.5 |
| 20260905221518 | 73 | 74 | 3.0 | 8.0 | 0.00 | 0.00 | 0.00 | 85 | 1013.4 |
| 20260905221016 | 72 | 78 | 3.0 | 9.0 | 0.00 | 0.00 | 0.00 | 85 | 1013.4 |
| 20260905220517 | 72 | 87 | 6.0 | 9.0 | 0.00 | 0.00 | 0.00 | 85 | 1013.4 |
| 20260905220016 | 72 | 84 | 7.0 | 11.0 | 0.00 | 0.00 | 0.00 | 85 | 1013.5 |
| 20260905215536 | 72 | 79 | 6.0 | 11.0 | 0.00 | 0.00 | 0.00 | 85 | 1013.4 |
| 20260905215016 | 72 | 58 | 4.0 | 13.0 | 0.00 | 0.00 | 0.00 | 86 | 1013.4 |
| 20260905214517 | 72 | 68 | 7.0 | 13.0 | 0.00 | 0.00 | 0.00 | 86 | 1013.3 |
| 20260905214017 | 72 | 74 | 6.0 | 9.0 | 0.00 | 0.00 | 0.00 | 86 | 1013.2 |
| 20260905213518 | 72 | 79 | 5.0 | 9.0 | 0.00 | 0.00 | 0.00 | 87 | 1013.2 |
| 20260905213017 | 72 | 75 | 5.0 | 10.0 | 0.00 | 0.00 | 0.00 | 87 | 1013.2 |
| 20260905212518 | 72 | 86 | 4.0 | 10.0 | 0.00 | 0.00 | 0.00 | 87 | 1013.2 |
| 20260905212017 | 72 | 91 | 6.0 | 9.0 | 0.00 | 0.00 | 0.00 | 86 | 1013.2 |
| 20260905211516 | 72 | 63 | 5.0 | 9.0 | 0.00 | 0.00 | 0.00 | 87 | 1013.2 |
| 20260905211016 | 72 | 69 | 5.0 | 11.0 | 0.00 | 0.00 | 0.00 | 86 | 1013.2 |
| 20260905210516 | 72 | 67 | 6.0 | 11.0 | 0.00 | 0.00 | 0.00 | 86 | 1013.2 |
| 20260905210017 | 72 | 78 | 5.0 | 10.0 | 0.00 | 0.00 | 0.00 | 87 | 1013.2 |
| 20260905205539 | 72 | 69 | 5.0 | 10.0 | 0.00 | 0.00 | 0.00 | 87 | 1013.2 |
| 20260905205016 | 72 | 85 | 7.0 | 11.0 | 0.00 | 0.00 | 0.00 | 87 | 1013.3 |
| 20260905204518 | 72 | 72 | 7.0 | 11.0 | 0.00 | 0.00 | 0.00 | 87 | 1013.4 |
| 20260905204016 | 71 | 83 | 6.0 | 11.0 | 0.00 | 0.01 | 0.00 | 87 | 1013.4 |
| 20260905203516 | 71 | 78 | 7.0 | 12.0 | 0.00 | 0.01 | 0.00 | 87 | 1013.4 |
| 20260905203016 | 71 | 72 | 7.0 | 12.0 | 0.00 | 0.01 | 0.00 | 87 | 1013.5 |
| 20260905202516 | 71 | 70 | 7.0 | 13.0 | 0.00 | 0.01 | 0.00 | 88 | 1013.5 |
| 20260905202017 | 71 | 67 | 8.0 | 13.0 | 0.00 | 0.01 | 0.00 | 87 | 1013.6 |
| 20260905201516 | 71 | 70 | 8.0 | 11.0 | 0.00 | 0.01 | 0.00 | 87 | 1013.6 |
| 20260905201017 | 71 | 64 | 6.0 | 11.0 | 0.00 | 0.02 | 0.00 | 88 | 1013.6 |
| 20260905200537 | 71 | 68 | 5.0 | 11.0 | 0.00 | 0.02 | 0.00 | 88 | 1013.6 |
| 20260905200017 | 71 | 63 | 6.0 | 11.0 | 0.00 | 0.02 | 0.00 | 89 | 1013.6 |
| 20260905195536 | 71 | 65 | 5.0 | 10.0 | 0.00 | 0.02 | 0.00 | 89 | 1013.6 |
| 20260905195056 | 71 | 71 | 5.0 | 11.0 | 0.00 | 0.02 | 0.00 | 89 | 1013.6 |
| 20260905194516 | 71 | 64 | 5.0 | 12.0 | 0.00 | 0.02 | 0.00 | 89 | 1013.6 |
| 20260905194016 | 71 | 62 | 6.0 | 12.0 | 0.00 | 0.03 | 0.00 | 88 | 1013.6 |
| 20260905193516 | 71 | 50 | 5.0 | 12.0 | 0.00 | 0.03 | 0.00 | 88 | 1013.6 |
| 20260905193016 | 71 | 56 | 5.0 | 10.0 | 0.00 | 0.03 | 0.00 | 89 | 1013.5 |
| 20260905192536 | 71 | 56 | 4.0 | 10.0 | 0.00 | 0.03 | 0.00 | 89 | 1013.7 |
| 20260905192017 | 71 | 65 | 7.0 | 11.0 | 0.00 | 0.04 | 0.00 | 89 | 1013.7 |
| 20260905191517 | 71 | 74 | 5.0 | 11.0 | 0.00 | 0.04 | 0.00 | 89 | 1013.8 |
| 20260905191016 | 71 | 48 | 4.0 | 9.0 | 0.00 | 0.04 | 0.00 | 89 | 1013.7 |
| 20260905190516 | 71 | 52 | 3.0 | 11.0 | 0.00 | 0.05 | 0.00 | 90 | 1013.6 |
| 20260905190016 | 71 | 54 | 6.0 | 11.0 | 0.00 | 0.05 | 0.00 | 89 | 1013.7 |
| 20260905185517 | 71 | 50 | 5.0 | 10.0 | 0.00 | 0.05 | 0.00 | 89 | 1013.8 |
| 20260905185016 | 71 | 63 | 4.0 | 10.0 | 0.00 | 0.05 | 0.00 | 89 | 1013.8 |
| 20260905184517 | 71 | 46 | 4.0 | 11.0 | 0.00 | 0.06 | 0.00 | 90 | 1013.8 |
| 20260905184016 | 71 | 68 | 5.0 | 11.0 | 0.00 | 0.06 | 0.00 | 90 | 1013.7 |
| 20260905183537 | 71 | 68 | 4.0 | 9.0 | 0.00 | 0.07 | 0.00 | 90 | 1013.7 |
| 20260905183016 | 71 | 67 | 5.0 | 9.0 | 0.00 | 0.07 | 0.00 | 90 | 1013.7 |
| 20260905182516 | 71 | 50 | 4.0 | 10.0 | 0.00 | 0.07 | 0.00 | 90 | 1013.6 |
| 20260905182016 | 71 | 57 | 5.0 | 10.0 | 0.00 | 0.08 | 0.00 | 90 | 1013.7 |
| 20260905181516 | 71 | 66 | 5.0 | 10.0 | 0.00 | 0.08 | 0.00 | 90 | 1013.7 |
| 20260905181016 | 71 | 55 | 3.0 | 9.0 | 0.00 | 0.08 | 0.00 | 91 | 1013.6 |
| 20260905180536 | 71 | 43 | 5.0 | 9.0 | 0.00 | 0.09 | 0.00 | 91 | 1013.7 |
| 20260905180017 | 71 | 45 | 3.0 | 7.0 | 0.00 | 0.09 | 0.00 | 92 | 1013.8 |
| 20260905175536 | 71 | 39 | 3.0 | 8.0 | 0.00 | 0.09 | 0.00 | 92 | 1013.8 |
| 20260905175036 | 71 | 35 | 4.0 | 8.0 | 0.00 | 0.10 | 0.00 | 92 | 1013.8 |
| 20260905174556 | 70 | 67 | 4.0 | 7.0 | 0.00 | 0.10 | 0.00 | 93 | 1013.8 |
| 20260905174016 | 70 | 55 | 4.0 | 9.0 | 0.00 | 0.10 | 0.00 | 93 | 1013.8 |
| 20260905173516 | 70 | 74 | 5.0 | 9.0 | 0.00 | 0.10 | 0.00 | 93 | 1013.7 |
| 20260905173036 | 70 | 62 | 4.0 | 7.0 | 0.00 | 0.11 | 0.00 | 94 | 1013.7 |
| 20260905172516 | 70 | 53 | 2.0 | 9.0 | 0.00 | 0.11 | 0.00 | 94 | 1013.7 |
| 20260905172016 | 69 | 71 | 4.0 | 9.0 | 0.00 | 0.12 | 0.00 | 94 | 1013.7 |
| 20260905171516 | 69 | 45 | 3.0 | 7.0 | 0.00 | 0.12 | 0.00 | 94 | 1013.9 |
| 20260905171016 | 69 | 37 | 3.0 | 7.0 | 0.00 | 0.12 | 0.00 | 94 | 1013.9 |
| 20260905170516 | 69 | 35 | 3.0 | 8.0 | 0.00 | 0.13 | 0.00 | 94 | 1013.9 |
| 20260905170016 | 69 | 66 | 4.0 | 8.0 | 0.00 | 0.13 | 0.00 | 94 | 1014.0 |
| 20260905165536 | 69 | 65 | 4.0 | 9.0 | 0.00 | 0.15 | 0.00 | 94 | 1013.9 |
| 20260905165016 | 69 | 54 | 4.0 | 9.0 | 0.00 | 0.15 | 0.00 | 94 | 1013.9 |
| 20260905164516 | 69 | 49 | 4.0 | 9.0 | 0.00 | 0.15 | 0.00 | 94 | 1013.8 |
| 20260905164016 | 69 | 53 | 3.0 | 9.0 | 0.00 | 0.16 | 0.00 | 94 | 1013.8 |
| 20260905163516 | 69 | 48 | 3.0 | 6.0 | 0.00 | 0.16 | 0.00 | 94 | 1013.8 |
| 20260905163016 | 69 | 39 | 3.0 | 9.0 | 0.00 | 0.17 | 0.00 | 94 | 1013.8 |
| 20260905162516 | 69 | 38 | 4.0 | 9.0 | 0.00 | 0.17 | 0.00 | 94 | 1013.9 |
| 20260905162016 | 69 | 18 | 4.0 | 8.0 | 0.00 | 0.18 | 0.00 | 94 | 1013.9 |
| 20260905161516 | 69 | 16 | 4.0 | 9.0 | 0.00 | 0.18 | 0.00 | 94 | 1013.8 |
| 20260905161016 | 69 | 18 | 4.0 | 10.0 | 0.00 | 0.18 | 0.00 | 94 | 1013.8 |
| 20260905160516 | 69 | 19 | 6.0 | 10.0 | 0.00 | 0.19 | 0.00 | 94 | 1013.8 |
| 20260905160016 | 69 | 40 | 4.0 | 9.0 | 0.00 | 0.19 | 0.00 | 94 | 1013.7 |
| 20260905155516 | 69 | 28 | 5.0 | 9.0 | 0.00 | 0.19 | 0.00 | 94 | 1013.7 |
| 20260905155017 | 69 | 48 | 3.0 | 6.0 | 0.00 | 0.20 | 0.00 | 94 | 1013.5 |
| 20260905154536 | 69 | 34 | 3.0 | 9.0 | 0.00 | 0.20 | 0.00 | 94 | 1013.5 |
| 20260905154016 | 69 | 46 | 4.0 | 9.0 | 0.00 | 0.20 | 0.00 | 94 | 1013.5 |
| 20260905153516 | 69 | 56 | 3.0 | 10.0 | 0.00 | 0.21 | 0.00 | 94 | 1013.6 |
| 20260905153016 | 69 | 58 | 4.0 | 10.0 | 0.00 | 0.21 | 0.00 | 94 | 1013.6 |
| 20260905152515 | 69 | 63 | 5.0 | 9.0 | 0.00 | 0.21 | 0.00 | 94 | 1013.6 |
| 20260905152016 | 69 | 28 | 3.0 | 8.0 | 0.00 | 0.22 | 0.00 | 94 | 1013.5 |
| 20260905151516 | 69 | 47 | 3.0 | 7.0 | 0.00 | 0.22 | 0.00 | 94 | 1013.5 |
| 20260905151015 | 69 | 57 | 2.0 | 8.0 | 0.00 | 0.23 | 0.00 | 94 | 1013.5 |
| 20260905150516 | 69 | 60 | 4.0 | 8.0 | 0.00 | 0.23 | 0.00 | 94 | 1013.5 |
| 20260905150036 | 69 | 39 | 3.0 | 7.0 | 0.00 | 0.23 | 0.00 | 94 | 1013.6 |
| 20260905145536 | 69 | 53 | 3.0 | 9.0 | 0.00 | 0.24 | 0.00 | 94 | 1013.5 |
| 20260905145015 | 69 | 29 | 5.0 | 9.0 | 0.00 | 0.24 | 0.00 | 94 | 1013.3 |
| 20260905144515 | 70 | 39 | 4.0 | 8.0 | 0.00 | 0.24 | 0.00 | 94 | 1013.2 |
| 20260905144015 | 70 | 15 | 4.0 | 10.0 | 0.00 | 0.25 | 0.00 | 94 | 1013.1 |
| 20260905143516 | 70 | 10 | 6.0 | 10.0 | 0.00 | 0.25 | 0.00 | 94 | 1013.2 |
| 20260905143016 | 70 | 15 | 5.0 | 10.0 | 0.00 | 0.25 | 0.00 | 93 | 1013.2 |
| 20260905142516 | 70 | 6 | 5.0 | 10.0 | 0.00 | 0.25 | 0.00 | 93 | 1013.2 |
| 20260905142037 | 70 | 12 | 6.0 | 10.0 | 0.00 | 0.26 | 0.00 | 94 | 1013.2 |
| 20260905141515 | 71 | 17 | 5.0 | 10.0 | 0.00 | 0.26 | 0.00 | 94 | 1013.2 |
| 20260905141015 | 71 | 73 | 2.0 | 7.0 | 0.00 | 0.26 | 0.00 | 94 | 1013.1 |
| 20260905140536 | 71 | 101 | 3.0 | 7.0 | 0.00 | 0.27 | 0.00 | 95 | 1013.1 |
| 20260905140015 | 71 | 78 | 2.0 | 7.0 | 0.00 | 0.27 | 0.00 | 95 | 1013.1 |
| 20260905135516 | 70 | 78 | 3.0 | 6.0 | 0.00 | 0.27 | 0.00 | 95 | 1013.0 |
| 20260905135017 | 70 | 85 | 2.0 | 6.0 | 0.00 | 0.28 | 0.00 | 95 | 1012.9 |
| 20260905134515 | 70 | 70 | 2.0 | 4.0 | 0.00 | 0.28 | 0.00 | 95 | 1013.0 |
| 20260905134016 | 70 | 90 | 1.0 | 4.0 | 0.00 | 0.28 | 0.00 | 95 | 1013.0 |
| 20260905133515 | 70 | 78 | 2.0 | 7.0 | 0.00 | 0.29 | 0.00 | 96 | 1013.0 |
| 20260905133117 | 70 | 83 | 3.0 | 7.0 | 0.00 | 0.29 | 0.00 | 96 | 1012.9 |
| 20260905132515 | 70 | 81 | 2.0 | 7.0 | 0.00 | 0.29 | 0.00 | 96 | 1012.9 |
| 20260905132035 | 70 | 94 | 2.0 | 6.0 | 0.00 | 0.29 | 0.00 | 96 | 1012.8 |
| 20260905131515 | 70 | 65 | 2.0 | 6.0 | 0.00 | 0.30 | 0.00 | 96 | 1012.8 |
| 20260905131015 | 70 | 69 | 2.0 | 5.0 | 0.00 | 0.30 | 0.00 | 96 | 1012.7 |
| 20260905130515 | 70 | 58 | 2.0 | 4.0 | 0.00 | 0.30 | 0.00 | 96 | 1012.8 |
| 20260905130015 | 69 | 90 | 1.0 | 4.0 | 0.00 | 0.31 | 0.00 | 96 | 1012.8 |
| 20260905125515 | 69 | 89 | 1.0 | 4.0 | 0.00 | 0.31 | 0.00 | 96 | 1012.8 |
| 20260905125015 | 69 | 84 | 1.0 | 3.0 | 0.00 | 0.31 | 0.00 | 96 | 1012.7 |
| 20260905124515 | 69 | 107 | 0.0 | 4.0 | 0.00 | 0.32 | 0.00 | 96 | 1012.8 |
| 20260905124035 | 69 | 125 | 1.0 | 6.0 | 0.00 | 0.32 | 0.00 | 96 | 1012.6 |
| 20260905123515 | 69 | 119 | 3.0 | 6.0 | 0.00 | 0.33 | 0.00 | 96 | 1012.5 |
| 20260905123036 | 69 | 105 | 4.0 | 6.0 | 0.00 | 0.33 | 0.00 | 96 | 1012.5 |
| 20260905122538 | 68 | 101 | 2.0 | 6.0 | 0.00 | 0.33 | 0.00 | 96 | 1012.5 |
| 20260905122015 | 68 | 84 | 1.0 | 4.0 | 0.00 | 0.34 | 0.00 | 96 | 1012.5 |
| 20260905121515 | 68 | 74 | 1.0 | 3.0 | 0.00 | 0.34 | 0.00 | 96 | 1012.6 |
| 20260905121015 | 68 | 70 | 2.0 | 3.0 | 0.00 | 0.34 | 0.00 | 96 | 1012.6 |
| 20260905120516 | 68 | 70 | 2.0 | 3.0 | 0.00 | 0.35 | 0.00 | 96 | 1012.6 |
| 20260905120057 | 68 | 79 | 1.0 | 3.0 | 0.00 | 0.35 | 0.00 | 96 | 1012.5 |
| 20260905115515 | 68 | 81 | 1.0 | 3.0 | 0.00 | 0.35 | 0.00 | 96 | 1012.5 |
| 20260905115035 | 68 | 94 | 0.0 | 4.0 | 0.00 | 0.36 | 0.00 | 96 | 1012.4 |
| 20260905114536 | 68 | 95 | 2.0 | 4.0 | 0.00 | 0.36 | 0.00 | 96 | 1012.3 |
| 20260905114015 | 68 | 102 | 2.0 | 4.0 | 0.00 | 0.36 | 0.00 | 96 | 1012.3 |
| 20260905113536 | 68 | 102 | 1.0 | 3.0 | 0.00 | 0.37 | 0.00 | 96 | 1012.3 |
| 20260905113057 | 68 | 84 | 1.0 | 5.0 | 0.00 | 0.37 | 0.00 | 96 | 1012.2 |
| 20260905112515 | 68 | 73 | 2.0 | 5.0 | 0.00 | 0.37 | 0.00 | 96 | 1012.1 |
| 20260905112015 | 68 | 66 | 2.0 | 4.0 | 0.00 | 0.37 | 0.00 | 96 | 1012.1 |
| 20260905111517 | 68 | 69 | 2.0 | 5.0 | 0.00 | 0.37 | 0.00 | 96 | 1012.1 |